FW2433 Weather Reports


Display with metric or nautical units.
time (UTC)temp
F
wind
direction
speed
MPH
gust
MPH
rain 1hr
in
rain 24hr
in
rain mn
in
humidity
%
barometer
mb
20260906083051 84 348 0.0 1.0 0.00 0.00 0.00 75 1020.3
20260906081552 83 22 0.0 0.0 0.00 0.00 0.00 76 1020.3
20260906080043 82 24 0.0 0.0 0.00 0.00 0.00 77 1020.2
20260906074539 81 26 0.0 0.0 0.00 0.00 0.00 77 1020.1
20260906073049 80 22 0.0 0.0 0.00 0.00 0.00 78 1019.9
20260906071533 79 5 0.0 0.0 0.00 0.00 0.00 79 1019.7
20260906070036 77 5 0.0 0.0 0.00 0.00 0.00 80 1019.8
20260906064532 77 337 0.0 0.0 0.00 0.00 0.00 80 1019.7
20260906063041 75 337 0.0 0.0 0.00 0.00 0.00 81 1019.6
20260906061525 75 336 0.0 0.0 0.00 0.00 0.00 81 1019.4
20260906060023 74 315 0.0 0.0 0.00 0.00 0.00 82 1019.3
20260906054521 74 300 0.0 0.0 0.00 0.00 0.00 83 1019.1
20260906053019 74 300 0.0 0.0 0.00 0.00 0.00 84 1019.1
20260906051534 74 297 0.0 0.0 0.00 0.00 0.00 86 1018.9
20260906050015 74 32 0.0 0.0 0.00 0.00 0.00 87 1018.8
20260906044513 74 32 0.0 0.0 0.00 0.00 0.00 88 1018.7
20260906043012 74 32 0.0 0.0 0.00 0.00 0.00 89 1018.5
20260906041510 75 32 0.0 0.0 0.00 0.00 0.00 91 1018.4
20260906040022 75 32 0.0 0.0 0.00 0.00 0.00 91 1018.3
20260906034507 75 32 0.0 0.0 0.00 0.00 0.00 92 1018.0
20260906033005 76 34 0.0 0.0 0.00 0.00 0.00 92 1017.9
20260906031502 76 34 0.0 0.0 0.00 0.00 0.00 92 1017.8
20260906030001 76 34 0.0 0.0 0.00 0.00 0.00 92 1017.7
20260906024501 77 34 0.0 0.0 0.00 0.00 0.00 91 1017.7
20260906023001 77 34 0.0 0.0 0.00 0.00 0.00 91 1017.7
20260906021606 77 35 0.0 0.0 0.00 0.00 0.00 90 1017.7
20260906020105 77 40 0.0 0.0 0.00 0.00 0.00 90 1017.6
20260906014557 76 55 0.0 0.0 0.00 0.00 0.00 89 1017.5
20260906013106 76 84 0.0 0.0 0.00 0.00 0.00 88 1017.4
20260906011555 76 92 0.0 0.0 0.00 0.00 0.00 87 1017.4
20260906010054 76 131 0.0 0.0 0.00 0.00 0.00 86 1017.3
20260906004554 76 131 0.0 0.0 0.00 0.00 0.00 85 1017.3
20260906003052 76 132 0.0 0.0 0.00 0.00 0.00 85 1017.2
20260906001550 77 132 0.0 0.0 0.00 0.00 0.00 85 1017.2
20260906000042 77 133 0.0 0.0 0.00 0.00 0.00 84 1017.3
20260905234537 77 133 0.0 0.0 0.00 0.00 0.00 84 1017.1
20260905233042 78 133 0.0 0.0 0.00 0.00 0.00 84 1017.1
20260905231533 78 133 0.0 0.0 0.00 0.00 0.00 83 1017.0
20260905230034 78 133 0.0 0.0 0.00 0.00 0.00 83 1016.9
20260905224530 79 133 0.0 0.0 0.00 0.00 0.00 82 1016.8
20260905223028 79 133 0.0 0.0 0.00 0.00 0.00 82 1016.7
20260905221526 79 133 0.0 0.0 0.00 0.00 0.00 82 1016.7
20260905220024 79 133 0.0 0.0 0.00 0.00 0.00 81 1016.6
20260905214526 79 133 0.0 0.0 0.00 0.00 0.00 81 1016.5
20260905213022 80 133 0.0 0.0 0.00 0.00 0.00 81 1016.4
20260905211520 80 133 0.0 0.0 0.00 0.00 0.00 80 1016.3
20260905210034 80 128 0.0 0.0 0.00 0.00 0.00 80 1016.2
20260905204518 80 143 0.0 0.0 0.00 0.00 0.00 80 1016.2
20260905203017 80 146 0.0 0.0 0.00 0.00 0.00 80 1016.1
20260905201516 81 140 0.0 0.0 0.00 0.00 0.00 80 1016.0
20260905200022 81 152 0.0 0.0 0.00 0.00 0.00 79 1016.0
20260905194514 82 148 0.0 0.0 0.00 0.00 0.00 78 1015.9
20260905193012 82 161 0.0 0.0 0.00 0.00 0.00 77 1015.7
20260905191510 83 156 0.0 0.0 0.00 0.00 0.00 75 1015.5
20260905190010 83 129 0.0 1.0 0.00 0.00 0.00 74 1015.3
20260905184512 84 141 0.0 0.0 0.00 0.00 0.00 72 1015.1
20260905183009 85 125 0.0 1.0 0.00 0.00 0.00 70 1015.0
20260905181507 87 112 0.0 0.0 0.00 0.00 0.00 66 1014.7
20260905180007 89 288 0.0 0.0 0.00 0.00 0.00 51 1014.4
20260905174517 90 288 0.0 0.0 0.00 0.00 0.00 49 1014.3
20260905173006 92 288 0.0 0.0 0.00 0.00 0.00 48 1014.1
20260905171505 93 288 0.0 0.0 0.00 0.00 0.00 46 1014.0
20260905170005 94 288 0.0 0.0 0.00 0.00 0.00 43 1014.0
20260905164504 94 288 0.0 0.0 0.00 0.00 0.00 42 1013.8
20260905163003 95 288 0.0 0.0 0.00 0.00 0.00 42 1013.8
20260905161504 95 318 0.0 0.0 0.00 0.00 0.00 41 1013.7
20260905160002 95 284 0.0 0.0 0.00 0.00 0.00 42 1013.7
20260905154502 95 341 0.0 1.0 0.00 0.00 0.00 42 1013.6
20260905153001 95 287 0.0 1.0 0.00 0.00 0.00 42 1013.4
20260905151600 95 300 0.0 2.0 0.00 0.00 0.00 43 1013.5
20260905150107 96 265 0.0 0.0 0.00 0.00 0.00 42 1013.5
20260905144602 96 286 0.0 1.0 0.00 0.00 0.00 41 1013.6
20260905143104 96 292 0.0 0.0 0.00 0.00 0.00 43 1013.7
20260905141554 95 283 0.0 1.0 0.00 0.00 0.00 43 1013.8
20260905140055 95 287 0.0 1.0 0.00 0.00 0.00 45 1013.9
20260905134555 94 144 0.0 1.0 0.00 0.00 0.00 44 1013.9
20260905133050 94 284 0.0 2.0 0.00 0.00 0.00 45 1014.2
20260905131545 94 321 0.0 0.0 0.00 0.00 0.00 47 1014.2
20260905130048 93 282 0.0 2.0 0.00 0.00 0.00 46 1014.5
20260905124541 93 280 0.0 0.0 0.00 0.00 0.00 47 1014.6
20260905123040 93 335 0.0 2.0 0.00 0.00 0.00 48 1014.7
20260905121538 92 282 0.0 3.0 0.00 0.00 0.00 48 1014.7
20260905120036 91 281 0.0 2.0 0.00 0.00 0.00 49 1014.9
20260905114528 91 329 0.0 1.0 0.00 0.00 0.00 50 1015.2
20260905113126 91 290 0.0 3.0 0.00 0.00 0.00 49 1015.3
20260905111523 91 282 0.0 2.0 0.00 0.00 0.00 49 1015.1
20260905110022 90 327 0.0 1.0 0.00 0.00 0.00 51 1015.1
20260905104521 89 292 0.0 1.0 0.00 0.00 0.00 51 1015.2
20260905103020 89 267 0.0 1.0 0.00 0.00 0.00 54 1015.2
20260905101514 88 299 0.0 1.0 0.00 0.00 0.00 54 1015.3
20260905100011 88 313 0.0 1.0 0.00 0.00 0.00 54 1015.4
20260905094508 87 326 0.0 3.0 0.00 0.00 0.00 54 1015.4
20260905093005 87 270 0.0 2.0 0.00 0.00 0.00 55 1015.4
20260905091501 86 317 0.0 0.0 0.00 0.00 0.00 58 1015.3
20260905090057 84 269 0.0 0.0 0.00 0.00 0.00 59 1015.4
20260905084605 83 244 0.0 1.0 0.00 0.00 0.00 60 1015.3